TimeEST,TemperatureF,Dew PointF,Humidity,Sea Level PressureIn,VisibilityMPH,Wind Direction,Wind SpeedMPH,Gust SpeedMPH,PrecipitationIn,Events,Conditions,WindDirDegrees,DateUTC
12:15 AM,41.0,28.4,61,29.82,10.0,NNW,8.1,-,N/A,,Overcast,330,2012-11-04 04:15:00
12:35 AM,41.0,28.4,61,29.82,10.0,NW,6.9,-,N/A,,Mostly Cloudy,320,2012-11-04 04:35:00
12:55 AM,41.0,28.4,61,29.83,10.0,NNW,4.6,-,N/A,,Overcast,340,2012-11-04 04:55:00
1:15 AM,41.0,28.4,61,29.82,10.0,NNW,4.6,-,N/A,,Overcast,330,2012-11-04 05:15:00
1:35 AM,41.0,28.4,61,29.82,10.0,NNW,8.1,-,N/A,,Overcast,330,2012-11-04 05:35:00
1:55 AM,41.0,28.4,61,29.83,10.0,NNW,3.5,-,N/A,,Overcast,330,2012-11-04 05:55:00
1:15 AM,41.0,28.4,61,29.83,10.0,NNW,6.9,-,N/A,,Overcast,330,2012-11-04 06:15:00
1:35 AM,41.0,28.4,61,29.84,10.0,WNW,3.5,-,N/A,,Overcast,290,2012-11-04 06:35:00
1:55 AM,41.0,28.4,61,29.84,10.0,NNW,8.1,-,N/A,,Overcast,330,2012-11-04 06:55:00
2:15 AM,41.0,28.4,61,29.83,10.0,NNW,3.5,-,N/A,,Overcast,340,2012-11-04 07:15:00
2:35 AM,41.0,28.4,61,29.83,10.0,NNW,4.6,-,N/A,,Overcast,340,2012-11-04 07:35:00
2:55 AM,39.2,28.4,65,29.83,10.0,North,4.6,-,N/A,,Overcast,350,2012-11-04 07:55:00
3:15 AM,39.2,28.4,65,29.83,10.0,NNW,5.8,-,N/A,,Overcast,330,2012-11-04 08:15:00
3:35 AM,39.2,30.2,70,29.83,10.0,NNW,5.8,-,N/A,,Scattered Clouds,340,2012-11-04 08:35:00
3:55 AM,39.2,30.2,70,29.84,10.0,North,5.8,-,N/A,,Mostly Cloudy,350,2012-11-04 08:55:00
4:15 AM,39.2,30.2,70,29.85,10.0,Calm,Calm,-,N/A,,Overcast,0,2012-11-04 09:15:00
4:36 AM,39.2,30.2,70,29.85,10.0,Calm,Calm,-,N/A,,Overcast,0,2012-11-04 09:36:00
4:55 AM,39.2,30.2,70,29.86,10.0,Calm,Calm,-,N/A,,Overcast,0,2012-11-04 09:55:00
5:15 AM,39.2,30.2,70,29.86,10.0,NNW,3.5,-,N/A,,Overcast,330,2012-11-04 10:15:00
5:36 AM,41.0,30.2,65,29.86,10.0,NNW,5.8,-,N/A,,Overcast,330,2012-11-04 10:36:00
5:55 AM,41.0,30.2,65,29.87,10.0,NNW,3.5,-,N/A,,Overcast,330,2012-11-04 10:55:00
6:15 AM,41.0,30.2,65,29.87,10.0,NNW,4.6,-,N/A,,Overcast,340,2012-11-04 11:15:00
6:36 AM,41.0,30.2,65,29.87,10.0,NNW,8.1,-,N/A,,Overcast,340,2012-11-04 11:36:00
6:55 AM,41.0,30.2,65,29.88,10.0,NW,4.6,-,N/A,,Overcast,320,2012-11-04 11:55:00
7:15 AM,41.0,30.2,65,29.89,10.0,NNW,8.1,-,N/A,,Overcast,330,2012-11-04 12:15:00
7:35 AM,41.0,30.2,65,29.89,10.0,NW,9.2,17.3,N/A,,Overcast,320,2012-11-04 12:35:00
7:55 AM,42.8,30.2,61,29.90,10.0,NNW,8.1,-,N/A,,Overcast,330,2012-11-04 12:55:00
8:15 AM,42.8,30.2,61,29.90,10.0,NNW,8.1,17.3,N/A,,Overcast,340,2012-11-04 13:15:00
8:35 AM,42.8,28.4,57,29.90,10.0,NNW,13.8,20.7,N/A,,Overcast,330,2012-11-04 13:35:00
8:55 AM,42.8,30.2,61,29.90,10.0,North,15.0,20.7,N/A,,Overcast,360,2012-11-04 13:55:00
9:16 AM,42.8,30.2,61,29.90,10.0,NNW,13.8,-,N/A,,Overcast,330,2012-11-04 14:16:00
9:35 AM,42.8,30.2,61,29.90,10.0,NNW,10.4,19.6,N/A,,Overcast,340,2012-11-04 14:35:00
9:55 AM,42.8,30.2,61,29.90,10.0,North,12.7,18.4,N/A,,Overcast,350,2012-11-04 14:55:00
10:15 AM,42.8,30.2,61,29.90,10.0,North,15.0,19.6,N/A,,Overcast,350,2012-11-04 15:15:00
10:35 AM,42.8,30.2,61,29.90,10.0,NNW,8.1,16.1,N/A,,Overcast,330,2012-11-04 15:35:00
10:55 AM,42.8,30.2,61,29.91,10.0,NNW,8.1,-,N/A,,Overcast,340,2012-11-04 15:55:00
11:15 AM,42.8,30.2,61,29.91,10.0,North,11.5,-,N/A,,Overcast,360,2012-11-04 16:15:00
11:35 AM,42.8,30.2,61,29.91,10.0,North,12.7,-,N/A,,Overcast,350,2012-11-04 16:35:00
11:55 AM,42.8,30.2,61,29.91,10.0,NW,6.9,-,N/A,,Overcast,320,2012-11-04 16:55:00
12:15 PM,42.8,30.2,61,29.90,10.0,North,8.1,-,N/A,,Overcast,350,2012-11-04 17:15:00
12:35 PM,42.8,30.2,61,29.90,10.0,North,11.5,17.3,N/A,,Overcast,350,2012-11-04 17:35:00
12:55 PM,42.8,30.2,61,29.90,10.0,NNW,9.2,-,N/A,,Overcast,340,2012-11-04 17:55:00
1:15 PM,42.8,28.4,57,29.90,10.0,North,13.8,18.4,N/A,,Overcast,350,2012-11-04 18:15:00
1:35 PM,42.8,28.4,57,29.90,10.0,NNW,8.1,-,N/A,,Overcast,340,2012-11-04 18:35:00
1:55 PM,42.8,28.4,57,29.90,10.0,NW,5.8,-,N/A,,Overcast,320,2012-11-04 18:55:00
2:15 PM,42.8,28.4,57,29.90,10.0,WNW,5.8,-,N/A,,Overcast,300,2012-11-04 19:15:00
2:35 PM,42.8,28.4,57,29.90,10.0,NW,8.1,-,N/A,,Overcast,310,2012-11-04 19:35:00
2:55 PM,42.8,28.4,57,29.90,10.0,NNW,10.4,-,N/A,,Overcast,330,2012-11-04 19:55:00
3:15 PM,42.8,28.4,57,29.90,10.0,NNW,9.2,-,N/A,,Overcast,330,2012-11-04 20:15:00
3:35 PM,42.8,28.4,57,29.90,10.0,NW,5.8,-,N/A,,Overcast,310,2012-11-04 20:35:00
3:55 PM,42.8,28.4,57,29.90,10.0,NW,10.4,-,N/A,,Overcast,320,2012-11-04 20:55:00
4:15 PM,42.8,28.4,57,29.91,10.0,NNW,6.9,-,N/A,,Overcast,330,2012-11-04 21:15:00
4:35 PM,42.8,28.4,57,29.91,10.0,NW,5.8,-,N/A,,Overcast,310,2012-11-04 21:35:00
4:55 PM,42.8,28.4,57,29.91,10.0,NW,6.9,-,N/A,,Overcast,310,2012-11-04 21:55:00
5:15 PM,42.8,28.4,57,29.92,10.0,NNW,6.9,-,N/A,,Overcast,330,2012-11-04 22:15:00
5:35 PM,42.8,28.4,57,29.92,10.0,NW,5.8,-,N/A,,Overcast,310,2012-11-04 22:35:00
5:55 PM,42.8,28.4,57,29.92,10.0,NW,5.8,-,N/A,,Overcast,320,2012-11-04 22:55:00
6:15 PM,42.8,28.4,57,29.92,10.0,NW,4.6,-,N/A,,Overcast,320,2012-11-04 23:15:00
6:35 PM,42.8,28.4,57,29.92,10.0,NW,8.1,-,N/A,,Overcast,310,2012-11-04 23:35:00
6:55 PM,42.8,28.4,57,29.92,10.0,NW,6.9,-,N/A,,Overcast,320,2012-11-04 23:55:00
7:35 PM,41.0,28.4,61,29.92,10.0,North,8.1,-,N/A,,Overcast,350,2012-11-05 00:35:00
7:55 PM,41.0,28.4,61,29.93,10.0,North,10.4,-,N/A,,Overcast,360,2012-11-05 00:55:00
8:15 PM,39.2,28.4,65,29.93,10.0,North,11.5,-,N/A,,Overcast,10,2012-11-05 01:15:00
8:35 PM,39.2,28.4,65,29.94,10.0,North,10.4,-,N/A,,Overcast,360,2012-11-05 01:35:00
8:55 PM,39.2,28.4,65,29.94,10.0,North,9.2,-,N/A,,Overcast,350,2012-11-05 01:55:00
9:15 PM,39.2,28.4,65,29.94,10.0,North,11.5,-,N/A,,Overcast,360,2012-11-05 02:15:00
9:35 PM,39.2,26.6,61,29.95,10.0,North,9.2,-,N/A,,Overcast,360,2012-11-05 02:35:00
9:55 PM,39.2,26.6,61,29.95,10.0,North,12.7,-,N/A,,Overcast,10,2012-11-05 02:55:00
10:35 PM,37.4,26.6,65,29.95,10.0,North,12.7,-,N/A,,Overcast,10,2012-11-05 03:35:00
10:55 PM,37.4,26.6,65,29.95,10.0,North,11.5,-,N/A,,Overcast,10,2012-11-05 03:55:00